Location: Burleson Alternative School
(32.5290°N, 97.3406°W)
Time: 19:22:05
(UTC+00:00)

Altair - All Passes

Search period start: 07 November 2024 00:00
Search period end: 17 November 2024 00:00
Orbit: 1501 x 1682 km, 47.2° (Epoch: 06 November)

Date Brightness Start Highest point End Pass type
(mag) Time Alt. Az. Time Alt. Az. Time Alt. Az.
07 Nov - 01:54:38 10° WNW 02:03:45 59° SW 02:13:12 10° SSE visible
07 Nov - 04:04:01 10° WSW 04:07:15 12° WSW 04:10:32 10° SW visible
07 Nov - 15:07:20 10° SSE 15:11:43 14° ESE 15:16:01 10° E daylight
07 Nov - 17:06:02 10° SW 17:15:12 66° SE 17:24:14 10° ENE daylight
07 Nov - 19:11:24 10° W 19:20:11 47° NNW 19:28:59 10° NE daylight
07 Nov - 21:18:55 10° WNW 21:26:53 32° N 21:34:57 10° ENE daylight
07 Nov - 23:24:41 10° NW 23:33:34 49° NNE 23:42:41 10° E daylight
08 Nov - 01:29:23 10° WNW 01:38:34 64° SW 01:48:05 10° SE visible
08 Nov - 03:37:42 10° W 03:42:08 14° WSW 03:46:39 10° SSW visible
08 Nov - 14:43:27 10° SE 14:46:37 12° ESE 14:49:44 10° ESE daylight
08 Nov - 16:40:56 10° SSW 16:50:02 60° SE 16:58:59 10° ENE daylight
08 Nov - 18:46:00 10° W 18:54:54 50° NNW 19:03:45 10° NE daylight
08 Nov - 20:53:31 10° WNW 21:01:30 32° N 21:09:33 10° ENE daylight
08 Nov - 22:59:28 10° NW 23:08:15 46° NNE 23:17:15 10° E daylight
09 Nov - 01:04:08 10° NW 01:13:22 70° SW 01:22:56 10° SE visible
09 Nov - 03:11:44 10° W 03:17:01 16° SW 03:22:25 10° SSW visible
09 Nov - 14:21:16 10° ESE 14:21:31 10° ESE 14:21:46 10° ESE daylight
09 Nov - 16:15:51 10° SSW 16:24:52 55° SE 16:33:43 10° ENE daylight
09 Nov - 18:20:37 10° WSW 18:29:36 53° NNW 18:38:33 10° NE daylight
09 Nov - 20:28:08 10° WNW 20:36:07 32° N 20:44:10 10° ENE daylight
09 Nov - 22:34:15 10° NW 22:42:56 44° NNE 22:51:48 10° E daylight
10 Nov - 00:38:55 10° NW 00:48:11 76° SW 00:57:46 10° SE visible
10 Nov - 02:45:57 10° W 02:51:54 19° SW 02:57:59 10° SSW visible
10 Nov - 15:50:49 10° SSW 15:59:44 50° SE 16:08:26 10° ENE daylight
10 Nov - 17:55:15 10° WSW 18:04:20 57° NNW 18:13:20 10° NE daylight
10 Nov - 20:02:43 10° WNW 20:10:44 32° N 20:18:47 10° NE daylight
10 Nov - 22:09:01 10° NW 22:17:36 42° NNE 22:26:21 10° E daylight
11 Nov - 00:13:43 10° NW 00:22:59 82° SW 00:32:34 10° SE visible
11 Nov - 02:20:17 10° W 02:26:46 21° SW 02:33:27 10° S visible
11 Nov - 15:25:48 10° SSW 15:34:35 45° SE 15:43:09 10° ENE daylight
11 Nov - 17:29:54 10° WSW 17:39:04 61° NNW 17:48:08 10° NE daylight
11 Nov - 19:37:17 10° WNW 19:45:21 33° N 19:53:26 10° NE daylight
11 Nov - 21:43:46 10° NW 21:52:16 40° NNE 22:00:54 10° E daylight
11 Nov - 23:48:30 10° NW 23:57:47 88° SW 00:07:21 10° SE visible
12 Nov - 01:54:43 10° WNW 02:01:39 24° SW 02:08:48 10° S visible
12 Nov - 15:00:49 10° SSW 15:09:26 41° SE 15:17:51 10° ENE daylight
12 Nov - 17:04:33 10° WSW 17:13:48 65° NNW 17:22:55 10° NE daylight
12 Nov - 19:11:51 10° WNW 19:19:58 33° N 19:28:06 10° NE daylight
12 Nov - 21:18:31 10° NW 21:26:55 38° NNE 21:35:26 10° E daylight
12 Nov - 23:23:17 10° NW 23:32:34 86° NE 23:42:06 10° SE daylight
13 Nov - 01:29:11 10° WNW 01:36:31 27° SW 01:44:04 10° S visible
13 Nov - 14:35:53 10° SSW 14:44:18 37° SE 14:52:29 10° ENE daylight
13 Nov - 16:39:14 10° WSW 16:48:34 69° NNW 16:57:43 10° NE daylight
13 Nov - 18:46:25 10° WNW 18:54:36 34° N 19:02:47 10° NE daylight
13 Nov - 20:53:15 10° NW 21:01:34 37° NNE 21:09:58 10° E daylight
13 Nov - 22:58:05 10° NW 23:07:20 81° NE 23:16:50 10° SE daylight
14 Nov - 01:03:44 10° WNW 01:11:24 30° SW 01:19:17 10° S visible
14 Nov - 14:10:59 10° S 14:19:10 34° SE 14:27:07 10° ENE daylight
14 Nov - 16:13:55 10° WSW 16:23:19 74° NW 16:32:32 10° NE daylight
14 Nov - 18:20:58 10° WNW 18:29:14 35° NNW 18:37:28 10° NE daylight
14 Nov - 20:27:58 10° NW 20:36:13 35° NNE 20:44:31 10° ENE daylight
14 Nov - 22:32:54 10° NW 22:42:07 75° NE 22:51:33 10° ESE daylight
15 Nov - 00:38:20 10° WNW 00:46:16 33° SW 00:54:26 10° S visible
15 Nov - 13:46:08 10° S 13:54:02 30° SE 14:01:43 10° ENE daylight
15 Nov - 15:48:39 10° SW 15:58:06 80° NW 16:07:20 10° NE daylight
15 Nov - 17:55:31 10° W 18:03:53 36° NNW 18:12:11 10° NE daylight
15 Nov - 20:02:41 10° NW 20:10:51 34° NNE 20:19:04 10° ENE daylight
15 Nov - 22:07:42 10° NW 22:16:52 70° NE 22:26:14 10° ESE daylight
16 Nov - 00:12:57 10° WNW 00:21:08 37° SW 00:29:32 10° SSE visible
16 Nov - 13:21:20 10° S 13:28:55 27° SE 13:36:16 10° ENE daylight
16 Nov - 15:23:22 10° SW 15:32:52 85° NW 15:42:08 10° NE daylight
16 Nov - 17:30:03 10° W 17:38:32 38° NNW 17:46:55 10° NE daylight
16 Nov - 19:37:21 10° NW 19:45:29 34° N 19:53:37 10° ENE daylight
16 Nov - 21:42:30 10° NW 21:51:38 66° NNE 22:00:55 10° ESE daylight
